Theta_e
316 318 316 317 317 318 318 318 317 317 319 319 321 320 321 322 322 322 323 323 324 324 324 324 324 324 318 307 306 317 338 344 330 322 317 321 318 316 312 313 313 313 312 312 312 311 312
318 318 317 317 318 318 319 318 318 317 318 320 320 320 320 321 321 322 322 323 323 323 324 324 323 323 311 301 314 318 319 325 321 319 318 321 320 317 313 310 309 311 312 310 310 310 310
317 317 317 317 317 318 318 318 318 318 317 318 319 320 320 320 320 321 321 322 322 323 323 323 323 319 309 306 317 321 316 314 318 318 317 319 320 316 313 309 310 309 307 308 309 310 308
317 318 318 318 317 318 318 319 318 318 316 318 319 319 319 319 319 320 320 320 321 321 322 323 323 317 304 314 319 319 318 313 319 320 319 321 321 316 312 311 306 305 307 304 306 307 307
319 318 318 319 319 318 318 318 318 317 317 317 318 318 318 319 318 319 319 319 321 322 322 322 317 311 302 320 313 316 314 311 317 318 319 319 319 314 309 307 303 302 304 306 305 307 306
320 318 318 319 320 317 317 317 318 317 317 317 317 318 317 317 317 317 318 319 321 320 318 318 315 308 310 306 310 311 314 315 312 314 312 312 313 312 309 306 301 299 299 302 306 304 304
320 319 320 320 317 317 316 317 317 316 317 316 317 318 317 317 317 317 317 314 305 306 309 302 305 306 308 313 313 310 313 312 313 311 306 308 310 308 310 309 308 306 302 301 300 302 302
319 318 320 319 316 317 316 316 315 315 316 315 316 317 318 317 317 317 316 306 305 309 303 309 305 306 310 313 305 309 313 306 306 304 307 304 303 312 310 304 302 301 299 300 300 302 302
318 318 319 318 316 316 315 315 315 315 315 316 315 316 317 316 316 315 312 309 314 312 304 304 308 305 307 310 305 305 310 307 303 302 304 307 306 303 303 303 304 302 300 300 297 300 301
319 318 319 319 316 315 314 314 315 314 315 315 316 317 317 318 312 313 308 313 316 314 298 298 303 306 309 311 304 309 311 307 303 300 302 302 303 302 301 300 301 298 300 300 298 297 294
318 319 319 318 316 314 313 313 314 315 315 316 317 317 318 318 312 311 315 316 315 310 287 300 303 312 310 306 306 305 309 309 302 301 302 299 301 301 300 300 301 299 302 300 298 298 296
318 319 319 318 316 314 314 314 315 316 317 316 317 318 318 316 314 315 316 313 310 297 287 297 303 302 303 305 304 305 305 308 307 303 303 301 303 303 301 301 302 302 300 299 298 297 291
318 319 318 318 318 315 314 314 315 316 317 319 318 318 317 317 313 316 314 307 297 289 298 295 297 300 301 300 301 301 300 300 299 295 296 300 299 301 303 300 301 300 298 292 290 290 289
318 318 318 317 318 317 315 314 314 317 318 319 318 318 318 317 318 316 309 303 290 295 296 301 299 299 297 300 299 299 298 296 297 298 297 295 292 298 299 299 298 298 298 292 285 288 291
318 318 318 317 318 317 317 315 315 318 318 318 316 316 314 314 316 315 305 295 295 297 298 298 299 295 296 298 299 298 298 296 295 297 296 294 292 296 297 299 299 296 295 296 291 290 289
319 318 318 318 318 317 316 317 317 318 318 315 312 309 310 310 315 308 303 296 297 298 299 299 293 296 293 296 297 297 296 296 294 295 297 296 291 294 295 298 298 298 298 292 294 286 285
319 319 318 318 317 318 316 316 317 319 318 312 308 305 308 308 311 306 298 297 298 299 299 299 297 297 297 296 297 296 295 295 296 294 296 296 295 291 294 295 295 294 294 293 293 291 287
320 319 318 318 317 317 316 315 316 319 315 309 307 299 306 309 302 302 299 298 298 298 300 299 300 299 298 297 296 295 295 295 295 295 294 293 296 292 291 292 294 295 294 295 291 288 290
321 320 319 318 317 316 317 315 315 317 312 310 304 305 306 308 298 298 299 296 297 297 296 297 297 297 297 295 294 295 295 294 296 295 294 295 292 289 288 291 293 292 293 293 292 293 290
322 321 319 318 317 316 316 315 315 316 313 309 304 299 301 304 301 299 297 297 296 296 296 296 296 296 296 294 296 294 293 294 296 298 296 296 292 290 290 291 293 290 290 292 293 290 291
321 321 319 318 316 315 315 316 315 315 314 306 303 300 299 297 299 299 298 297 295 294 296 295 294 295 295 292 293 293 293 292 295 297 294 294 290 290 290 290 291 291 291 290 290 293 289
316 317 320 318 318 316 315 316 315 315 311 305 303 300 297 297 295 298 296 297 295 294 295 294 293 293 293 294 295 293 294 293 293 294 293 293 291 291 289 290 290 289 292 291 291 291 290
316 314 320 319 318 317 315 316 314 314 310 307 305 302 300 293 295 297 298 298 297 295 293 294 294 294 293 293 295 296 296 296 296 294 292 292 292 291 290 289 290 289 292 292 292 293 293
315 314 315 319 319 317 315 316 315 313 312 307 305 304 300 296 294 296 295 296 295 294 293 293 294 295 294 298 299 299 297 296 295 294 295 293 293 293 292 289 283 289 293 293 293 293 294
314 314 312 317 319 318 316 316 316 314 313 307 305 303 301 297 295 294 294 294 294 294 293 293 294 295 298 296 294 292 293 292 291 291 292 294 294 290 289 287 290 289 289 290 290 291 295
312 313 312 313 316 317 316 315 316 314 313 312 307 307 306 302 298 296 294 295 294 294 293 292 294 297 298 297 296 292 291 292 289 289 291 292 293 292 288 287 285 288 292 294 295 288 295
311 312 312 311 314 316 317 316 316 314 313 311 309 308 305 301 297 295 295 294 296 295 294 293 293 293 296 296 294 294 293 292 290 289 287 289 289 288 288 287 289 293 294 295 286 290 296
310 312 312 310 310 312 317 317 316 314 314 309 307 306 305 301 297 297 297 295 295 298 296 294 294 293 294 293 294 295 293 293 291 291 289 289 288 287 287 286 284 294 292 291 295 296 297
310 311 311 309 310 310 312 316 316 315 313 311 303 305 304 303 297 298 298 298 298 297 298 295 297 295 298 296 295 295 293 292 292 289 291 288 292 292 291 292 293 296 295 296 297 297 296
Wind_Speed
5 5 4 8 9 9 9 11 8 11 10 11 12 8 7 5 2 3 4 6 7 10 10 11 11 11 8 8 12 5 6 9 12 8 11 11 10 4 4 2 3 8 7 4 6 6 5
6 4 7 7 8 9 9 9 10 8 12 11 11 8 5 3 3 4 6 7 8 10 10 11 10 10 6 13 5 6 3 6 7 9 9 10 8 3 2 1 3 2 6 8 5 7 5
7 6 7 8 7 9 9 9 9 8 12 11 9 10 6 4 4 6 7 9 10 10 10 11 9 7 9 19 3 7 8 6 7 8 8 5 8 6 3 2 1 7 3 4 5 6 4
7 9 9 8 8 9 9 8 8 7 9 12 9 9 6 4 5 8 9 11 11 12 11 9 6 7 10 7 11 11 8 7 5 6 4 7 4 7 1 6 1 4 3 5 3 5 3
8 9 9 9 11 7 7 8 8 8 8 10 10 10 7 7 8 10 12 13 15 14 10 7 7 7 9 5 9 8 10 8 9 6 5 6 5 3 5 7 5 3 10 15 6 5 3
11 10 10 11 6 8 9 7 7 7 8 8 8 8 7 9 9 10 12 15 13 11 6 5 6 7 9 2 3 5 6 10 6 11 7 6 5 8 8 9 10 5 6 7 7 5 6
14 13 13 10 9 8 7 7 5 6 7 6 9 7 5 6 9 10 9 5 5 6 7 8 1 6 4 9 4 5 3 8 9 11 9 6 10 14 17 13 6 4 5 6 1 2 3
15 14 14 11 10 8 6 6 6 5 6 6 8 6 7 6 6 5 5 5 4 5 9 16 15 13 14 7 4 6 4 8 10 13 8 7 13 10 5 7 6 4 5 8 2 1 4
16 16 15 13 10 8 5 5 5 5 5 6 7 7 8 6 5 4 7 8 3 8 6 2 6 7 2 6 3 6 4 4 9 11 12 10 1 6 8 8 8 6 7 7 5 2 2
14 17 15 13 11 8 5 4 4 6 5 6 7 7 6 3 2 2 4 1 4 5 6 4 4 2 3 2 4 1 1 2 4 10 9 4 4 9 7 9 9 9 2 3 3 2 6
12 15 17 13 11 8 5 4 5 5 6 5 7 7 5 8 6 4 5 9 1 4 4 3 3 2 1 1 5 3 3 3 6 8 4 6 8 9 9 3 2 5 4 4 2 3 4
13 13 15 15 13 9 7 5 5 6 7 7 7 5 4 4 3 10 11 10 3 5 2 3 1 4 6 2 2 3 1 4 2 5 5 5 2 2 4 7 4 13 6 4 2 2 6
13 13 11 15 13 10 9 7 5 7 7 6 5 5 6 3 1 2 8 3 5 4 0 3 2 3 1 4 2 1 2 5 3 7 8 5 4 4 2 8 6 3 5 4 6 5 2
11 13 12 11 13 13 9 9 7 6 6 5 6 6 6 10 4 6 4 4 4 2 2 2 2 5 2 1 2 2 5 5 1 3 6 8 7 1 3 3 1 5 4 6 6 4 3
11 12 13 12 11 12 13 11 9 6 5 5 5 4 4 4 7 4 4 5 5 2 2 1 3 4 4 2 1 1 1 3 2 4 2 4 5 3 5 2 3 6 6 4 1 0 4
11 11 11 12 13 8 13 13 11 6 6 8 2 3 4 5 8 3 5 4 2 1 3 3 3 2 3 2 2 4 4 3 1 3 5 3 6 1 4 1 7 3 5 4 4 4 5
11 11 11 10 11 12 9 14 12 7 9 8 3 4 5 4 6 6 5 2 2 1 2 3 1 3 2 5 3 2 3 2 2 2 2 1 3 5 3 4 3 5 4 1 3 4 5
12 10 11 9 9 12 9 11 13 7 12 6 2 5 3 4 5 1 4 1 2 2 1 1 1 1 3 3 3 3 3 4 3 2 2 3 2 4 2 3 2 2 1 6 5 5 1
13 10 10 11 7 9 10 8 13 9 14 4 3 2 2 4 5 5 2 2 2 2 1 1 2 1 1 3 2 1 3 1 2 1 2 4 2 4 6 5 4 5 4 2 3 1 7
13 11 10 9 8 8 9 7 9 12 12 3 2 4 3 3 1 4 3 3 3 2 2 1 1 1 3 3 3 5 4 1 2 2 4 2 2 4 2 5 2 4 7 8 8 5 4
12 14 12 9 11 10 9 8 8 12 12 5 3 3 3 4 7 6 3 1 3 3 1 1 2 2 2 3 3 3 3 4 2 1 1 3 4 2 0 1 3 4 6 10 13 11 8
13 14 15 11 8 10 10 9 7 9 9 5 3 4 3 0 2 8 5 6 7 3 3 3 3 3 2 2 2 7 6 4 2 3 2 1 2 2 3 2 3 7 10 11 11 9 11
14 14 13 13 11 8 6 8 6 8 14 5 2 1 4 3 4 5 4 5 6 7 2 2 2 4 3 3 4 7 7 8 6 4 5 4 5 4 1 0 5 10 9 12 5 6 7
16 11 15 16 13 10 7 9 7 10 20 5 2 2 4 3 6 6 2 4 6 5 2 2 1 1 4 12 12 11 13 12 10 8 4 5 4 0 1 3 5 5 3 2 8 5 12
18 14 13 15 14 8 9 9 9 10 14 8 2 3 3 3 4 4 7 4 8 5 4 3 4 3 12 2 3 4 3 3 5 7 6 5 3 3 2 3 6 5 5 4 4 2 10
20 18 14 15 15 12 12 9 9 9 11 10 6 3 3 3 5 2 6 8 6 5 5 3 4 8 3 0 2 4 4 1 4 4 4 5 3 3 3 2 4 4 4 2 2 5 5
20 19 16 12 16 18 16 12 10 9 9 10 5 5 3 3 2 3 3 5 4 3 4 5 7 5 2 2 2 3 3 1 3 5 5 4 3 6 4 4 7 5 7 3 4 3 7
21 20 17 13 16 15 16 13 10 9 9 11 3 4 3 2 2 1 1 3 3 5 5 8 7 4 3 5 3 3 3 3 3 2 3 6 6 4 3 4 6 9 6 6 4 4 6
22 21 17 15 12 18 19 14 12 11 9 16 5 2 1 1 3 2 3 2 3 4 2 6 3 5 5 3 2 3 3 3 2 3 3 4 3 2 8 4 3 11 1 2 3 5 6
Wind_Direction
315 310 303 315 314 317 316 312 309 311 310 304 314 292 310 330 9 349 331 323 320 318 322 323 322 327 306 235 251 316 329 143 160 176 220 205 203 203 220 234 191 235 150 126 136 141 134
324 333 318 303 312 311 312 311 324 315 312 311 308 296 282 309 346 337 323 319 316 313 319 317 317 312 261 251 263 329 270 178 188 196 199 203 196 151 258 15 251 354 142 129 153 142 144
328 321 311 310 303 310 309 304 303 304 302 304 306 307 266 285 313 317 314 311 310 310 311 308 310 284 253 243 277 306 314 228 205 203 193 193 146 182 159 113 333 134 150 144 167 168 141
322 320 324 316 305 289 295 305 305 299 298 304 301 306 260 270 308 309 309 304 301 298 298 295 296 256 259 245 259 276 248 210 183 197 238 148 174 125 187 113 330 127 248 236 147 189 114
313 318 311 299 299 323 307 313 303 297 295 302 312 306 264 273 313 302 302 299 295 292 289 275 247 246 256 313 230 229 210 184 147 133 129 136 211 116 154 179 184 220 219 237 204 210 150
323 318 308 307 313 320 305 297 301 296 292 295 315 309 303 284 290 296 301 296 288 284 235 224 254 248 239 186 171 155 185 170 147 139 136 185 182 182 196 199 207 170 217 233 246 153 214
335 328 321 313 314 299 304 286 298 300 295 287 298 286 289 291 298 304 311 290 211 192 225 234 195 286 286 329 233 157 159 155 143 169 186 178 197 203 205 212 248 193 209 248 45 64 265
330 328 322 320 317 311 304 290 281 276 282 285 281 285 295 269 282 307 282 270 314 24 294 228 247 266 274 272 168 134 198 189 176 175 165 180 216 199 216 167 172 180 209 235 169 116 267
333 327 322 322 317 307 296 279 273 269 265 274 270 268 277 288 295 267 260 256 1 326 263 213 213 242 249 217 116 133 226 160 181 161 188 216 98 164 177 176 206 216 229 240 278 163 204
335 327 325 325 321 305 284 269 268 266 254 265 272 272 275 270 248 303 252 27 283 241 265 108 180 178 178 194 106 351 21 262 156 168 171 157 137 170 177 189 212 209 169 167 136 257 284
334 331 326 329 322 305 275 269 266 255 253 239 274 265 265 226 340 257 4 327 308 220 178 105 106 49 118 286 106 99 25 210 153 134 216 108 158 166 175 112 211 86 113 111 130 228 285
326 331 333 330 322 307 281 249 261 259 253 245 251 246 229 226 248 262 306 320 233 247 94 129 283 164 163 101 83 105 125 53 70 106 85 98 105 39 75 73 70 136 119 103 130 220 241
321 328 336 331 329 309 280 257 241 255 255 234 227 223 206 260 305 310 326 273 268 308 348 124 115 158 111 117 92 124 114 132 199 159 166 141 70 91 117 112 117 190 196 230 212 200 330
316 322 328 336 328 316 284 268 247 255 244 224 207 196 219 239 257 305 310 239 276 330 335 69 86 125 177 186 108 97 136 161 90 282 157 177 165 148 20 5 261 187 268 275 275 249 91
309 320 322 326 336 324 304 271 256 249 217 188 170 194 239 239 232 192 238 248 344 355 329 185 140 184 144 219 57 156 84 138 39 342 286 156 111 95 43 62 302 136 214 18 226 62 257
301 310 317 322 323 331 316 289 263 233 179 164 215 237 223 134 168 189 243 284 338 291 299 234 201 290 154 325 219 190 192 54 105 6 329 127 129 61 118 169 67 309 107 185 200 246 249
294 302 308 317 322 322 326 303 271 227 156 159 243 246 106 164 201 230 264 336 310 155 288 276 201 176 167 176 229 158 111 104 13 54 348 148 295 113 194 206 175 154 192 122 320 300 294
283 294 296 303 316 316 323 318 279 229 141 175 252 237 99 193 236 238 260 243 336 307 96 238 307 28 186 165 131 140 131 29 351 295 113 48 35 152 85 93 347 318 262 236 258 153 279
277 285 290 300 304 311 314 328 286 230 197 151 243 275 134 231 250 222 157 239 267 265 329 297 180 319 63 122 160 103 102 26 331 31 103 157 160 163 158 169 177 229 180 162 116 243 224
271 277 276 290 290 301 315 318 288 258 213 259 243 230 168 204 315 277 230 214 208 187 246 306 116 191 157 140 34 144 138 113 2 82 64 246 147 285 339 63 90 190 192 203 222 223 225
292 265 262 264 293 296 307 309 299 261 205 273 207 234 345 188 209 211 224 231 199 214 216 217 161 259 202 151 143 142 126 136 104 74 77 272 215 210 132 209 241 260 221 201 215 242 251
318 282 260 251 254 280 293 303 309 250 172 255 233 216 185 169 173 204 188 207 215 177 204 198 236 152 205 203 310 183 153 206 128 140 148 35 147 190 205 203 252 265 245 235 236 256 260
296 310 260 260 251 242 272 297 291 229 203 238 167 168 276 128 182 200 208 218 209 157 128 355 178 142 125 50 53 64 74 70 88 147 142 180 160 192 219 160 282 260 249 210 205 224 233
286 289 292 246 242 227 251 273 267 235 212 295 230 198 225 208 220 220 215 192 181 184 153 94 147 170 103 123 114 93 82 82 78 64 16 157 152 316 345 229 236 72 101 157 224 232 216
276 286 286 270 255 231 232 248 265 257 225 251 285 252 225 246 216 203 178 138 123 98 83 89 36 30 149 193 134 140 132 168 77 47 36 356 169 115 263 236 317 178 190 195 215 312 221
268 274 274 262 269 264 233 225 242 257 225 225 266 281 269 261 219 76 164 178 159 147 133 83 57 151 317 119 174 193 203 140 175 134 60 79 73 251 174 220 247 60 127 170 203 259 160
264 263 259 267 295 257 237 223 228 243 215 208 243 213 268 259 122 190 187 187 142 140 109 137 148 193 270 198 181 199 193 343 215 187 170 159 160 224 194 249 280 139 145 152 226 35 163
261 257 243 244 274 296 246 221 211 227 210 197 256 200 260 248 123 335 6 165 147 200 161 136 147 175 170 213 215 171 219 160 216 110 187 185 168 179 163 214 261 145 138 219 70 123 164
256 252 244 238 245 262 270 248 205 218 211 193 249 174 217 305 67 48 66 33 335 345 116 175 1 145 159 157 180 119 162 169 197 219 194 227 254 202 212 220 106 193 9 88 164 160 178